Flag for Australia Weather past 2 weeks in Brisbane, Queensland, Australia

Now
68 °F

Passing clouds.


Feels Like: 68 °F
Forecast: 44 / 70 °F
Wind: 8 mph from Northeast

Location: Brisbane Airport M. O

Current Time: Jul 4, 2015 at 3:22:24 PM

Latest Report: Jul 4, 2015 at 2:30 PM


Visibility: N/A

Pressure: 30.12 "Hg

Humidity: 56%

Dew point: 52 °F

Location of BrisbaneLocation

Historic Weather in Brisbane — Graph

°F

Brisbane temperature yesterday

Maximum temperature yesterday: 68 °F (at 2:30 PM)
Minimum temperature yesterday: 43 °F (at 2:00 AM)
Average temperature yesterday: 55 °F

Past Weeks' High & Low Weather Summary

 TemperatureHumidityPressure
High73 °F (Jul 1, 1:30 PM)100% (Jun 25, 3:00 AM)30.45 "Hg (Jun 25, 3:00 AM)
Low43 °F (Jul 3, 2:00 AM)30% (Jul 2, 3:30 PM)29.95 "Hg (Jun 19, 2:00 PM)
Average60 °F76%30.24 "Hg
* Reported Jun 19 2:00 PM — Jul 4 2:30 PM, Brisbane, Weather by CustomWeather, © 2015

Note: Actual official high and low records may vary slightly from our data, if they occured in-between our weather recording intervals... More about our weather records

Advertising

Brisbane weather history for previous 24 hours

 ConditionsComfort  
Time TempWeatherWind HumidityBarometerVisibility
2:30 PM
Sat, Jul 4
68 °FPassing clouds.8 mph56%30.12 "HgN/A
2:00 PM66 °FScattered clouds.6 mph56%30.12 "HgN/A
1:30 PM68 °FScattered clouds.3 mph53%30.15 "HgN/A
1:00 PM68 °FScattered clouds.6 mph53%30.15 "HgN/A
12:30 PM66 °FPartly sunny.6 mph56%30.15 "HgN/A
12:00 PM66 °FPartly sunny.6 mph52%30.18 "HgN/A
11:30 AM64 °FPartly sunny.8 mph56%30.18 "HgN/A
11:00 AM64 °FScattered clouds.9 mph56%30.21 "HgN/A
10:30 AM63 °FScattered clouds.10 mph56%30.21 "HgN/A
10:00 AM63 °FScattered clouds.13 mph56%30.24 "HgN/A
9:30 AM61 °FScattered clouds.14 mph55%30.24 "HgN/A
9:00 AM59 °FScattered clouds.13 mph59%30.24 "HgN/A
8:30 AM57 °FScattered clouds.10 mph67%30.24 "HgN/A
8:00 AM54 °FPartly sunny.9 mph72%30.21 "HgN/A
7:30 AM54 °FScattered clouds.9 mph72%30.21 "HgN/A
7:00 AM52 °FScattered clouds.8 mph77%30.21 "HgN/A
6:30 AM52 °FScattered clouds.10 mph77%30.18 "HgN/A
6:00 AM48 °FScattered clouds.9 mph87%30.18 "HgN/A
5:30 AM50 °FPassing clouds.9 mph82%30.18 "HgN/A
5:00 AM52 °FPartly cloudy.9 mph77%30.18 "HgN/A
4:30 AM50 °FPassing clouds.9 mph82%30.18 "HgN/A
4:00 AM54 °FClear.8 mph72%30.18 "Hg10 mi
3:30 AM54 °FPassing clouds.9 mph72%30.18 "HgN/A
3:00 AM54 °FPartly cloudy.9 mph72%30.18 "HgN/A
2:30 AM54 °FPartly cloudy.8 mph72%30.18 "HgN/A
2:00 AM54 °FPassing clouds.7 mph72%30.18 "HgN/A
1:30 AM52 °FPassing clouds.7 mph77%30.18 "HgN/A
1:00 AM52 °FPassing clouds.7 mph77%30.18 "HgN/A
12:30 AM50 °FClear.8 mph82%30.18 "Hg10 mi
12:00 AM54 °FPassing clouds.8 mph72%30.18 "HgN/A
11:30 PM
Fri, Jul 3
54 °FPassing clouds.8 mph72%30.21 "HgN/A
11:00 PM52 °FClear.8 mph77%30.21 "Hg10 mi
10:30 PM54 °FClear.8 mph72%30.21 "Hg10 mi
10:00 PM54 °FClear.7 mph72%30.21 "Hg10 mi
9:30 PM54 °FPassing clouds.9 mph72%30.21 "HgN/A
9:00 PM55 °FClear.7 mph67%30.21 "Hg10 mi
8:30 PM55 °FClear.8 mph67%30.21 "Hg10 mi
8:00 PM55 °FClear.8 mph67%30.21 "Hg10 mi
7:30 PM55 °FClear.7 mph67%30.18 "Hg10 mi
7:00 PM59 °FClear.7 mph59%30.18 "Hg10 mi
6:30 PM59 °FPassing clouds.7 mph63%30.18 "HgN/A
6:00 PM61 °FPassing clouds.6 mph59%30.18 "HgN/A
5:30 PM61 °FPassing clouds.6 mph55%30.15 "HgN/A
5:00 PM63 °FPassing clouds.6 mph52%30.15 "HgN/A
4:30 PM64 °FPassing clouds.6 mph49%30.15 "HgN/A
4:00 PM64 °FPassing clouds.8 mph49%30.15 "HgN/A
3:00 PM66 °FPassing clouds.7 mph46%30.12 "HgN/A
Weather by CustomWeather, © 2015

See weather overviewHow to use our weather pages